Change the Weather History Date:

Saturday, December 29, 2012

  Actual Average Record
Temperature  
Mean Temperature 35 °F -  
Max Temperature 42 °F 23 °F 46 °F (1982)
Min Temperature 28 °F 8 °F -39 °F (1961)
Degree Days  
Heating Degree Days 30    
Moisture  
Dew Point 32 °F    
Average Humidity 85    
Maximum Humidity 100    
Minimum Humidity 70    
Precipitation  
Precipitation 0.00 in - - ()
Sea Level Pressure  
Sea Level Pressure 29.34 in    
Wind  
Wind Speed 8 mph (East)    
Max Wind Speed 15 mph    
Max Gust Speed 24 mph    
Visibility 9 miles    
Events      
Averages and records for this station are not official NWS values.
T = Trace of Precipitation, MM = Missing Value Source: NWS Daily Summary

Daily Weather History Graph

Daily Weather History Graph

Search for Another Location

Airport or City:

Trip Planner

Search our weather history database for the weather conditions in past years. The results will help you decide how hot, cold, wet, or windy it might be!

Date:

Astronomy

Dec. 29, 2012 Rise Set
Actual Time 10:11 AM AKST 4:01 PM AKST
Civil Twilight 9:13 AM AKST 5:00 PM AKST
Nautical Twilight 8:15 AM AKST 5:57 PM AKST
Astronomical Twilight 7:23 AM AKST 6:50 PM AKST
Moon 6:21 PM AKST (12/29) 10:18 AM AKST (12/29)
Length of Visible Light 7h 47m
Length of Day
5h 49m
Full, 98% of the Moon is Illuminated
Dec 29
Full
Jan 4
Last Quarter
Jan 11
New
Jan 18
First Quarter
Jan 26
Full

Hourly Weather History & Observations

Time (AKST) Temp. Windchill Dew Point Humidity Pressure Visibility Wind Dir Wind Speed Gust Speed Precip Events Conditions
12:16 AM 39.2 °F 30.8 °F 33.8 °F 81% 29.36 in 10.0 mi East 15.0 mph - N/A   Clear
12:36 AM 39.2 °F 31.2 °F 33.8 °F 81% 29.35 in 10.0 mi ENE 13.8 mph - N/A   Mostly Cloudy
12:56 AM 41.0 °F 34.7 °F 33.8 °F 76% 29.32 in 10.0 mi NE 10.4 mph 17.3 mph N/A   Overcast
1:16 AM 37.4 °F 32.8 °F 33.8 °F 87% 29.29 in 10.0 mi NE 5.8 mph - N/A   Overcast
1:36 AM 41.0 °F 34.3 °F 33.8 °F 76% 29.29 in 10.0 mi East 11.5 mph 17.3 mph N/A   Overcast
1:56 AM 42.8 °F 37.5 °F 33.8 °F 70% 29.28 in 10.0 mi ENE 9.2 mph - N/A   Overcast
2:16 AM 39.2 °F 34.2 °F 33.8 °F 81% 29.29 in 10.0 mi East 6.9 mph - N/A   Overcast
2:36 AM 39.2 °F 37.0 °F 35.6 °F 87% 29.30 in 10.0 mi SW 3.5 mph - N/A   Overcast
2:56 AM 39.2 °F 37.0 °F 35.6 °F 87% 29.31 in 10.0 mi ESE 3.5 mph - N/A   Overcast
3:16 AM 37.4 °F 33.8 °F 35.6 °F 93% 29.31 in 10.0 mi South 4.6 mph - N/A   Overcast
3:36 AM 39.2 °F 33.6 °F 35.6 °F 87% 29.31 in 10.0 mi ENE 8.1 mph - N/A   Mostly Cloudy
3:56 AM 39.2 °F 32.0 °F 35.6 °F 87% 29.29 in 10.0 mi East 11.5 mph 20.7 mph N/A   Overcast
4:16 AM 39.2 °F 30.8 °F 35.6 °F 87% 29.29 in 10.0 mi ESE 15.0 mph 23.0 mph N/A   Overcast
4:36 AM 37.4 °F 29.3 °F 35.6 °F 93% 29.26 in 10.0 mi East 12.7 mph - N/A   Mostly Cloudy
4:56 AM 37.4 °F 28.9 °F 35.6 °F 93% 29.24 in 10.0 mi East 13.8 mph 19.6 mph N/A   Partly Cloudy
5:16 AM 37.4 °F 28.9 °F 33.8 °F 87% 29.26 in 10.0 mi ESE 13.8 mph - N/A   Clear
5:36 AM 37.4 °F 28.5 °F 33.8 °F 87% 29.24 in 10.0 mi East 15.0 mph 24.2 mph N/A   Clear
5:56 AM 37.4 °F 28.9 °F 33.8 °F 87% 29.24 in 10.0 mi ESE 13.8 mph - N/A   Clear
6:16 AM 35.6 °F 29.2 °F 33.8 °F 93% 29.24 in 10.0 mi East 8.1 mph - N/A   Clear
6:36 AM 35.6 °F 31.7 °F 33.8 °F 93% 29.25 in 10.0 mi East 4.6 mph - N/A   Clear
6:56 AM 35.6 °F - 33.8 °F 93% 29.26 in 10.0 mi Calm Calm - N/A   Scattered Clouds
7:16 AM 33.8 °F - 32.0 °F 93% 29.28 in 10.0 mi Calm Calm - N/A   Overcast
7:36 AM 33.8 °F 28.6 °F 33.8 °F 100% 29.30 in 10.0 mi East 5.8 mph - N/A   Overcast
7:56 AM 37.4 °F 31.4 °F 33.8 °F 87% 29.31 in 10.0 mi South 8.1 mph - N/A   Mostly Cloudy
8:16 AM 39.2 °F 35.9 °F 33.8 °F 81% 29.32 in 10.0 mi South 4.6 mph - N/A   Overcast
8:36 AM 39.2 °F 37.0 °F 33.8 °F 81% 29.33 in 10.0 mi South 3.5 mph - N/A   Overcast
8:56 AM 37.4 °F 32.8 °F 33.8 °F 87% 29.34 in 10.0 mi SSE 5.8 mph - N/A   Overcast
9:16 AM 39.2 °F 34.2 °F 33.8 °F 81% 29.35 in 10.0 mi SSE 6.9 mph - N/A   Mostly Cloudy
9:36 AM 39.2 °F 35.9 °F 32.0 °F 75% 29.36 in 10.0 mi SSE 4.6 mph - N/A   Mostly Cloudy
9:56 AM 37.4 °F 33.8 °F 33.8 °F 87% 29.37 in 10.0 mi ENE 4.6 mph - N/A   Overcast
10:16 AM 37.4 °F 32.1 °F 33.8 °F 87% 29.38 in 10.0 mi SE 6.9 mph - N/A   Overcast
10:36 AM 37.4 °F 33.8 °F 32.0 °F 81% 29.39 in 10.0 mi SSE 4.6 mph - N/A   Overcast
10:56 AM 35.6 °F - 30.2 °F 81% 29.40 in 10.0 mi Calm Calm - N/A   Overcast
11:16 AM 33.8 °F 29.6 °F 30.2 °F 87% 29.41 in 10.0 mi ESE 4.6 mph - N/A   Overcast
11:36 AM 33.8 °F 28.6 °F 30.2 °F 87% 29.41 in 10.0 mi East 5.8 mph - N/A   Mostly Cloudy
11:56 AM 33.8 °F 28.6 °F 30.2 °F 87% 29.42 in 10.0 mi East 5.8 mph - N/A   Mostly Cloudy
12:16 PM 33.8 °F - 30.2 °F 87% 29.43 in 10.0 mi Calm Calm - N/A   Scattered Clouds
12:36 PM 32.0 °F 28.7 °F 30.2 °F 93% 29.44 in 10.0 mi East 3.5 mph - N/A   Clear
12:56 PM 32.0 °F - 30.2 °F 93% 29.45 in 10.0 mi Calm Calm - N/A   Clear
1:16 PM 33.8 °F - 30.2 °F 87% 29.46 in 10.0 mi Calm Calm - N/A   Clear
1:36 PM 30.2 °F 25.4 °F 30.2 °F 100% 29.47 in 7.0 mi East 4.6 mph - N/A   Clear
1:56 PM 32.0 °F - 30.2 °F 93% 29.46 in 10.0 mi Calm Calm - N/A   Clear
2:16 PM 30.2 °F - 30.2 °F 100% 29.48 in 4.0 mi Calm Calm - N/A   Clear
2:36 PM 30.2 °F - 28.4 °F 93% 29.48 in 10.0 mi Calm Calm - N/A   Clear
3:16 PM 30.2 °F - 28.4 °F 93% 29.48 in 4.0 mi Calm Calm - N/A   Clear
3:36 PM 30.2 °F - 30.2 °F 100% 29.47 in 1.5 mi Calm Calm - N/A   Clear
3:56 PM 30.2 °F - 28.4 °F 93% 29.47 in 3.0 mi Calm Calm - N/A   Clear
4:16 PM 28.4 °F - 28.4 °F 100% 29.46 in 1.2 mi Calm Calm - N/A   Clear
4:36 PM 28.4 °F - 28.4 °F 100% 29.47 in 1.8 mi Calm Calm - N/A   Clear
4:56 PM 28.4 °F - 26.6 °F 93% 29.45 in 10.0 mi Calm Calm - N/A   Clear
5:16 PM 28.4 °F - 28.4 °F 100% 29.45 in 2.5 mi Calm Calm - N/A   Clear
5:36 PM 30.2 °F - 28.4 °F 93% 29.42 in 10.0 mi Calm Calm - N/A   Clear
5:56 PM 28.4 °F - 26.6 °F 93% 29.40 in 10.0 mi Calm Calm - N/A   Scattered Clouds
6:16 PM 30.2 °F - 28.4 °F 93% 29.38 in 10.0 mi Calm Calm - N/A   Mostly Cloudy
6:36 PM 39.2 °F 32.5 °F 32.0 °F 75% 29.37 in 10.0 mi ENE 10.4 mph 17.3 mph N/A   Partly Cloudy
6:56 PM 39.2 °F 32.0 °F 30.2 °F 70% 29.36 in 10.0 mi NE 11.5 mph - N/A   Clear
7:16 PM 37.4 °F 32.1 °F 30.2 °F 75% 29.36 in 10.0 mi NE 6.9 mph - N/A   Clear
7:36 PM 37.4 °F 31.4 °F 28.4 °F 70% 29.34 in 10.0 mi North 8.1 mph - N/A   Clear
7:56 PM 37.4 °F 30.8 °F 28.4 °F 70% 29.33 in 10.0 mi ENE 9.2 mph - N/A   Clear
8:16 PM 37.4 °F 32.1 °F 28.4 °F 70% 29.31 in 10.0 mi North 6.9 mph - N/A   Partly Cloudy
8:36 PM 37.4 °F 30.8 °F 28.4 °F 70% 29.28 in 10.0 mi NNE 9.2 mph - N/A   Mostly Cloudy
8:56 PM 37.4 °F 30.8 °F 28.4 °F 70% 29.26 in 10.0 mi NNE 9.2 mph 16.1 mph N/A   Partly Cloudy
9:16 PM 37.4 °F 32.1 °F 28.4 °F 70% 29.25 in 10.0 mi NE 6.9 mph - N/A   Scattered Clouds
9:36 PM 37.4 °F 30.3 °F 30.2 °F 75% 29.24 in 10.0 mi NNE 10.4 mph - N/A   Mostly Cloudy
9:56 PM 37.4 °F 31.4 °F 30.2 °F 75% 29.21 in 10.0 mi NE 8.1 mph - N/A   Overcast
10:16 PM 37.4 °F 32.1 °F 30.2 °F 75% 29.19 in 10.0 mi NE 6.9 mph - N/A   Overcast
10:36 PM 39.2 °F 32.5 °F 32.0 °F 75% 29.19 in 10.0 mi NNE 10.4 mph 18.4 mph N/A   Overcast
10:56 PM 39.2 °F 32.5 °F 32.0 °F 75% 29.18 in 10.0 mi NNE 10.4 mph 17.3 mph N/A   Overcast
11:16 PM 37.4 °F 29.3 °F 32.0 °F 81% 29.18 in 10.0 mi NE 12.7 mph 17.3 mph N/A   Mostly Cloudy
11:36 PM 37.4 °F 29.8 °F 33.8 °F 87% 29.17 in 10.0 mi ENE 11.5 mph 20.7 mph N/A   Overcast
11:56 PM 37.4 °F 31.4 °F 33.8 °F 87% 29.15 in 10.0 mi ENE 8.1 mph - N/A   Overcast